WA6MEM Weather Reports


time (UTC)temp
C
wind
direction
speed
KPH
gust
KPH
rain 1hr
cm
rain 24hr
cm
rain mn
cm
humidity
%
barometer
mb
20260508200511 15 115 4.8 0.0 0.00 0.00 0.00 91 1014.2
20260508200010 16 155 4.8 0.0 0.00 0.00 0.00 92 1014.2
20260508195510 16 200 4.8 0.0 0.00 0.00 0.00 93 1014.3
20260508195008 15 211 4.8 0.0 0.00 0.00 0.00 94 1014.3
20260508194508 15 166 4.8 0.0 0.00 0.00 0.00 94 1014.3
20260508194008 15 206 4.8 0.0 0.00 0.00 0.00 94 1014.4
20260508193506 15 192 4.8 0.0 0.00 0.00 0.00 95 1014.4
20260508193005 15 165 4.8 0.0 0.00 0.00 0.00 95 1014.4
20260508192504 15 228 4.8 0.0 0.00 0.00 0.00 95 1014.5
20260508192004 15 146 3.2 0.0 0.00 0.00 0.00 96 1014.5
20260508191505 14 183 3.2 0.0 0.00 0.00 0.00 96 1014.8
20260508191002 14 201 3.2 0.0 0.00 0.00 0.00 96 1014.8
20260508190504 14 149 3.2 0.0 0.00 0.00 0.00 96 1014.8
20260508190108 13 204 3.2 0.0 0.00 0.00 0.00 96 1014.8
20260508185559 13 209 3.2 0.0 0.00 0.00 0.00 95 1015.0
20260508185059 13 200 3.2 0.0 0.00 0.00 0.00 96 1015.0
20260508184558 13 219 3.2 0.0 0.00 0.00 0.00 96 1015.0
20260508184057 13 185 3.2 0.0 0.00 0.00 0.00 96 1015.0
20260508183557 13 178 3.2 0.0 0.00 0.00 0.00 96 1015.0
20260508183057 13 195 3.2 0.0 0.00 0.00 0.00 96 1015.0
20260508182556 13 161 3.2 0.0 0.00 0.00 0.00 96 1015.0
20260508182057 13 204 3.2 0.0 0.00 0.00 0.00 96 1015.0
20260508181608 13 207 3.2 0.0 0.00 0.00 0.00 96 1015.0
20260508181056 13 158 3.2 0.0 0.00 0.00 0.00 96 1015.0
20260508180556 13 203 3.2 0.0 0.00 0.00 0.00 96 1015.0
20260508180105 13 155 3.2 0.0 0.00 0.00 0.00 96 1015.0
20260508175555 13 173 3.2 0.0 0.00 0.00 0.00 96 1015.1
20260508175055 13 236 3.2 0.0 0.00 0.00 0.00 96 1015.1
20260508174609 13 84 1.6 0.0 0.00 0.00 0.00 96 1015.1
20260508174056 13 42 1.6 0.0 0.00 0.00 0.00 96 1015.2
20260508173554 13 53 1.6 0.0 0.00 0.00 0.00 96 1015.2
20260508173055 13 45 1.6 0.0 0.00 0.00 0.00 96 1015.2
20260508172554 13 47 1.6 0.0 0.00 0.00 0.00 96 1015.3
20260508172053 13 72 1.6 0.0 0.00 0.00 0.00 96 1015.3
20260508171553 13 50 3.2 0.0 0.00 0.00 0.00 96 1015.3
20260508171056 13 355 3.2 0.0 0.00 0.00 0.00 96 1015.1
20260508170552 13 96 3.2 0.0 0.00 0.00 0.00 96 1015.1
20260508170054 13 82 3.2 0.0 0.00 0.00 0.00 96 1015.1
20260508165550 13 94 3.2 0.0 0.00 0.00 0.00 96 1015.1
20260508165050 13 105 3.2 0.0 0.00 0.00 0.00 96 1015.1
20260508164551 13 150 3.2 0.0 0.00 0.00 0.00 96 1015.1
20260508164051 13 106 3.2 0.0 0.00 0.00 0.00 96 1015.1
20260508163553 12 150 3.2 0.0 0.00 0.00 0.00 96 1015.1
20260508163050 12 67 4.8 0.0 0.00 0.00 0.00 96 1015.1
20260508162550 12 100 3.2 0.0 0.00 0.00 0.00 96 1015.1
20260508162050 12 94 3.2 0.0 0.00 0.00 0.00 96 1015.1
20260508161550 12 63 3.2 0.0 0.00 0.00 0.00 96 1015.1
20260508161049 12 85 4.8 0.0 0.00 0.00 0.00 96 1015.1
20260508160553 12 5 4.8 0.0 0.00 0.00 0.00 96 1015.1
20260508160048 12 71 3.2 0.0 0.00 0.00 0.00 96 1015.1
20260508155549 12 82 3.2 0.0 0.00 0.00 0.00 96 1015.0
20260508155048 12 73 3.2 0.0 0.00 0.00 0.00 96 1015.0
20260508154549 12 76 3.2 0.0 0.00 0.00 0.00 96 1015.0
20260508154048 12 42 1.6 0.0 0.00 0.00 0.00 96 1014.9
20260508153548 12 19 3.2 0.0 0.00 0.00 0.00 96 1014.9
20260508153048 12 59 4.8 0.0 0.00 0.00 0.00 96 1014.9
20260508152551 12 74 4.8 0.0 0.00 0.00 0.00 96 1015.1
20260508152047 12 49 4.8 0.0 0.00 0.00 0.00 96 1015.1
20260508151547 12 75 3.2 0.0 0.00 0.00 0.00 96 1015.1
20260508151047 12 132 1.6 0.0 0.00 0.00 0.00 96 1015.1
20260508150547 12 79 1.6 0.0 0.00 0.00 0.00 96 1015.1
20260508150046 12 36 4.8 0.0 0.00 0.00 0.00 96 1015.1
20260508145546 12 38 4.8 0.0 0.00 0.00 0.00 96 1015.1
20260508145045 12 30 4.8 0.0 0.00 0.00 0.00 96 1015.1
20260508144545 12 68 4.8 0.0 0.00 0.00 0.00 96 1015.1
20260508144045 12 130 3.2 0.0 0.00 0.00 0.00 96 1015.1
20260508143545 12 36 3.2 0.0 0.00 0.00 0.00 95 1015.1
20260508143051 12 38 3.2 0.0 0.00 0.00 0.00 95 1015.1
20260508142544 12 54 3.2 0.0 0.00 0.00 0.00 95 1015.0
20260508142044 12 76 4.8 0.0 0.00 0.00 0.00 95 1015.0
20260508141555 12 16 4.8 0.0 0.00 0.00 0.00 95 1015.0
20260508141043 12 53 3.2 0.0 0.00 0.00 0.00 95 1014.5
20260508140543 12 78 1.6 0.0 0.00 0.00 0.00 95 1014.5
20260508140042 12 101 1.6 0.0 0.00 0.00 0.00 95 1014.5
20260508135542 12 105 3.2 0.0 0.00 0.00 0.00 95 1014.6
20260508135043 12 97 3.2 0.0 0.00 0.00 0.00 95 1014.6
20260508134555 12 136 3.2 0.0 0.00 0.00 0.00 95 1014.6
20260508134042 12 109 4.8 0.0 0.00 0.00 0.00 95 1014.6
20260508133542 12 111 1.6 0.0 0.00 0.00 0.00 95 1014.6
20260508133041 12 62 1.6 0.0 0.00 0.00 0.00 95 1014.6
20260508132541 12 78 3.2 0.0 0.00 0.00 0.00 95 1014.5
20260508132041 12 142 3.2 0.0 0.00 0.00 0.00 95 1014.5
20260508131540 12 116 3.2 0.0 0.00 0.00 0.00 95 1014.5
20260508131040 12 74 3.2 0.0 0.00 0.00 0.00 95 1014.2
20260508130543 12 78 3.2 0.0 0.00 0.00 0.00 95 1014.2
20260508130040 12 78 3.2 0.0 0.00 0.00 0.00 95 1014.2
20260508125539 12 63 3.2 0.0 0.00 0.00 0.00 95 1014.0
20260508125039 12 65 3.2 0.0 0.00 0.00 0.00 95 1014.0
20260508124539 12 71 3.2 0.0 0.00 0.00 0.00 95 1014.0
20260508124039 12 71 3.2 0.0 0.00 0.00 0.00 95 1013.9
20260508123538 12 71 4.8 0.0 0.00 0.00 0.00 95 1013.9
20260508123040 12 61 4.8 0.0 0.00 0.00 0.00 95 1013.9
20260508122537 12 71 4.8 0.0 0.00 0.00 0.00 95 1013.8
20260508122038 12 98 4.8 0.0 0.00 0.00 0.00 95 1013.8
20260508121541 12 61 3.2 0.0 0.00 0.00 0.00 95 1013.8
20260508121038 12 163 3.2 0.0 0.00 0.00 0.00 95 1013.6
20260508120538 12 75 3.2 0.0 0.00 0.00 0.00 95 1013.6
20260508120042 12 90 3.2 0.0 0.00 0.00 0.00 95 1013.6
20260508115540 12 58 3.2 0.0 0.00 0.00 0.00 95 1013.6
20260508115036 12 85 3.2 0.0 0.00 0.00 0.00 95 1013.6
20260508114546 12 27 1.6 0.0 0.00 0.00 0.00 95 1013.6
20260508114038 12 75 1.6 0.0 0.00 0.00 0.00 95 1013.6
20260508113536 12 78 3.2 0.0 0.00 0.00 0.00 95 1013.6
20260508113040 12 63 1.6 0.0 0.00 0.00 0.00 95 1013.6
20260508112536 12 53 3.2 0.0 0.00 0.00 0.00 95 1013.6
20260508112040 12 136 3.2 0.0 0.00 0.00 0.00 95 1013.6
20260508111541 12 70 3.2 0.0 0.00 0.00 0.00 95 1013.6
20260508111037 12 48 3.2 0.0 0.00 0.00 0.00 95 1013.5
20260508110535 12 87 3.2 0.0 0.00 0.00 0.00 95 1013.5
20260508110034 12 63 1.6 0.0 0.00 0.00 0.00 95 1013.5
20260508105534 12 136 0.0 0.0 0.00 0.00 0.00 95 1013.6
20260508105033 12 140 1.6 0.0 0.00 0.00 0.00 95 1013.6
20260508104533 12 85 1.6 0.0 0.00 0.00 0.00 95 1013.6
20260508104033 12 80 1.6 0.0 0.00 0.00 0.00 95 1013.6
20260508103533 12 130 1.6 0.0 0.00 0.00 0.00 95 1013.6
20260508103038 12 77 1.6 0.0 0.00 0.00 0.00 95 1013.6
20260508102533 12 35 1.6 0.0 0.00 0.00 0.00 95 1013.6
20260508102033 12 107 1.6 0.0 0.00 0.00 0.00 95 1013.6
20260508101533 12 122 1.6 0.0 0.00 0.00 0.00 95 1013.6
20260508101032 12 98 1.6 0.0 0.00 0.00 0.00 95 1013.6
20260508100532 12 67 1.6 0.0 0.00 0.00 0.00 95 1013.6
20260508100031 12 95 1.6 0.0 0.00 0.00 0.00 95 1013.6
20260508095531 12 97 1.6 0.0 0.00 0.00 0.00 95 1013.6
20260508095032 12 120 1.6 0.0 0.00 0.00 0.00 95 1013.6
20260508094532 12 153 1.6 0.0 0.00 0.00 0.00 95 1013.6
20260508094030 12 120 1.6 0.0 0.00 0.00 0.00 95 1013.7
20260508093530 12 134 1.6 0.0 0.00 0.00 0.00 95 1013.7
20260508093034 12 166 1.6 0.0 0.00 0.00 0.00 95 1013.7
20260508092531 12 142 1.6 0.0 0.00 0.00 0.00 95 1013.7
20260508092029 12 132 1.6 0.0 0.00 0.00 0.00 95 1013.7
20260508091535 12 165 1.6 0.0 0.00 0.00 0.00 95 1013.7
20260508091032 12 139 1.6 0.0 0.00 0.00 0.00 95 1014.0
20260508090528 12 161 1.6 0.0 0.00 0.00 0.00 95 1014.0
20260508090028 12 161 1.6 0.0 0.00 0.00 0.00 95 1014.0
20260508085527 12 161 1.6 0.0 0.00 0.00 0.00 95 1014.1
20260508085027 12 144 1.6 0.0 0.00 0.00 0.00 95 1014.1
20260508084527 12 144 1.6 0.0 0.00 0.00 0.00 95 1014.1
20260508084027 12 133 1.6 0.0 0.00 0.00 0.00 95 1014.1
20260508083527 12 132 1.6 0.0 0.00 0.00 0.00 95 1014.1
20260508083026 12 39 1.6 0.0 0.00 0.00 0.00 95 1014.1
20260508082526 12 67 1.6 0.0 0.00 0.00 0.00 95 1014.2
20260508082027 12 69 1.6 0.0 0.00 0.00 0.00 95 1014.2
20260508081553 12 59 1.6 0.0 0.00 0.00 0.00 95 1014.2
20260508081025 12 46 1.6 0.0 0.00 0.00 0.00 95 1014.3
20260508080525 12 76 1.6 0.0 0.00 0.00 0.00 95 1014.3
20260508080025 12 64 0.0 0.0 0.00 0.00 0.00 95 1014.3
20260508075523 12 64 0.0 0.0 0.00 0.00 0.00 95 1014.2
20260508075023 12 64 0.0 0.0 0.00 0.00 0.00 95 1014.2
20260508074524 12 64 1.6 0.0 0.00 0.00 0.00 95 1014.2
20260508074023 12 64 1.6 0.0 0.00 0.00 0.00 95 1014.2
20260508073526 12 128 0.0 0.0 0.00 0.00 0.00 95 1014.2
20260508073022 12 155 0.0 0.0 0.00 0.00 0.00 95 1014.2
20260508072521 12 155 0.0 0.0 0.00 0.00 0.00 95 1014.2
20260508072023 12 135 0.0 0.0 0.00 0.00 0.00 95 1014.2
20260508071536 12 135 1.6 0.0 0.00 0.00 0.00 95 1014.2
20260508071021 12 175 1.6 0.0 0.00 0.00 0.00 95 1014.3
20260508070524 12 175 1.6 0.0 0.00 0.00 0.00 95 1014.3
20260508070020 12 157 1.6 0.0 0.00 0.00 0.00 95 1014.3
20260508065522 12 157 1.6 0.0 0.00 0.00 0.00 94 1014.2
20260508065019 12 157 1.6 0.0 0.00 0.00 0.00 94 1014.2
20260508064519 12 124 1.6 0.0 0.00 0.00 0.00 94 1014.2
20260508064019 12 147 1.6 0.0 0.00 0.00 0.00 94 1014.2
20260508063521 12 193 1.6 0.0 0.00 0.00 0.00 95 1014.2
20260508063030 12 210 1.6 0.0 0.00 0.00 0.00 95 1014.2
20260508062519 12 198 1.6 0.0 0.00 0.00 0.00 95 1014.2
20260508062018 12 196 1.6 0.0 0.00 0.00 0.00 94 1014.2
20260508061518 12 196 1.6 0.0 0.00 0.00 0.00 94 1014.2
20260508061021 12 196 1.6 0.0 0.00 0.00 0.00 94 1014.3
20260508060519 12 194 1.6 0.0 0.00 0.00 0.00 94 1014.3
20260508060018 12 174 1.6 0.0 0.00 0.00 0.00 94 1014.3
20260508055517 12 198 1.6 0.0 0.00 0.00 0.00 94 1014.3
20260508055018 12 198 1.6 0.0 0.00 0.00 0.00 94 1014.3
20260508054518 12 198 1.6 0.0 0.00 0.00 0.00 94 1014.3
20260508054017 12 207 1.6 0.0 0.00 0.00 0.00 94 1014.3
20260508053517 12 200 1.6 0.0 0.00 0.00 0.00 94 1014.3
20260508053021 12 198 1.6 0.0 0.00 0.00 0.00 94 1014.3
20260508052519 12 171 1.6 0.0 0.00 0.00 0.00 94 1014.3
20260508052017 12 194 3.2 0.0 0.00 0.00 0.00 94 1014.3
20260508051517 12 186 3.2 0.0 0.00 0.00 0.00 94 1014.3
20260508051017 12 175 1.6 0.0 0.00 0.00 0.00 94 1014.3
20260508050517 13 202 3.2 0.0 0.00 0.00 0.00 94 1014.3
20260508050017 13 202 3.2 0.0 0.00 0.00 0.00 94 1014.3
20260508045516 13 184 3.2 0.0 0.00 0.00 0.00 94 1014.3
20260508045016 13 180 3.2 0.0 0.00 0.00 0.00 94 1014.3
20260508044516 13 184 3.2 0.0 0.00 0.00 0.00 94 1014.3
20260508044016 13 186 3.2 0.0 0.00 0.00 0.00 94 1014.2
20260508043515 13 198 3.2 0.0 0.00 0.00 0.00 94 1014.2
20260508043019 13 180 3.2 0.0 0.00 0.00 0.00 94 1014.2
20260508042519 13 197 3.2 0.0 0.00 0.00 0.00 94 1013.9
20260508042015 13 201 3.2 0.0 0.00 0.00 0.00 93 1013.9
20260508041515 13 190 3.2 0.0 0.00 0.00 0.00 93 1013.9
20260508041015 13 178 3.2 0.0 0.00 0.00 0.00 93 1013.8
20260508040514 13 169 3.2 0.0 0.00 0.00 0.00 93 1013.8
20260508040014 13 175 1.6 0.0 0.00 0.00 0.00 93 1013.8
20260508035514 13 206 1.6 0.0 0.00 0.00 0.00 93 1013.7
20260508035014 13 198 3.2 0.0 0.00 0.00 0.00 92 1013.7
20260508034514 13 179 3.2 0.0 0.00 0.00 0.00 92 1013.7
20260508034014 13 181 3.2 0.0 0.00 0.00 0.00 91 1013.4
20260508033514 13 193 3.2 0.0 0.00 0.00 0.00 91 1013.4
20260508033017 13 173 1.6 0.0 0.00 0.00 0.00 91 1013.4
20260508032518 13 231 1.6 0.0 0.00 0.00 0.00 91 1013.3
20260508032013 13 231 1.6 0.0 0.00 0.00 0.00 91 1013.3
20260508031513 12 248 1.6 0.0 0.00 0.00 0.00 92 1013.3
20260508031013 12 75 1.6 0.0 0.00 0.00 0.00 92 1013.2
20260508030513 13 42 1.6 0.0 0.00 0.00 0.00 92 1013.2
20260508030013 13 128 1.6 0.0 0.00 0.00 0.00 92 1013.2
20260508025515 13 169 0.0 0.0 0.00 0.00 0.00 92 1012.9
20260508025012 13 169 0.0 0.0 0.00 0.00 0.00 92 1012.9
20260508024521 13 169 1.6 0.0 0.00 0.00 0.00 92 1012.9
20260508024014 13 189 3.2 0.0 0.00 0.00 0.00 92 1012.8
20260508023512 13 189 3.2 0.0 0.00 0.00 0.00 92 1012.8
20260508023020 13 201 3.2 0.0 0.00 0.00 0.00 92 1012.8
20260508022512 13 207 4.8 0.0 0.00 0.00 0.00 92 1012.7
20260508022012 13 360 4.8 0.0 0.00 0.00 0.00 91 1012.7
20260508021512 14 192 6.4 0.0 0.00 0.00 0.00 90 1012.7
20260508021011 14 202 6.4 0.0 0.00 0.00 0.00 90 1012.8
20260508020511 15 177 4.8 0.0 0.00 0.00 0.00 89 1012.8
20260508020011 15 156 4.8 0.0 0.00 0.00 0.00 88 1012.8
20260508015511 15 173 4.8 0.0 0.00 0.00 0.00 87 1012.7
20260508015011 15 182 4.8 0.0 0.00 0.00 0.00 86 1012.7
20260508014511 15 173 4.8 0.0 0.00 0.00 0.00 86 1012.7
20260508014009 16 163 4.8 0.0 0.00 0.00 0.00 85 1012.6
20260508013514 16 192 4.8 0.0 0.00 0.00 0.00 84 1012.6
20260508013010 16 360 3.2 0.0 0.00 0.00 0.00 84 1012.6
20260508012510 16 172 3.2 0.0 0.00 0.00 0.00 83 1012.5
20260508012011 16 185 3.2 0.0 0.00 0.00 0.00 83 1012.5
20260508011509 16 197 3.2 0.0 0.00 0.00 0.00 83 1012.5
20260508011009 16 360 4.8 0.0 0.00 0.00 0.00 83 1012.7
20260508010509 16 179 4.8 0.0 0.00 0.00 0.00 82 1012.7
20260508010010 17 177 4.8 0.0 0.00 0.00 0.00 82 1012.7
20260508005508 17 161 4.8 0.0 0.00 0.00 0.00 82 1012.6
20260508005012 17 174 4.8 0.0 0.00 0.00 0.00 82 1012.6
20260508004508 17 198 4.8 0.0 0.00 0.00 0.00 81 1012.6
20260508004012 17 188 4.8 0.0 0.00 0.00 0.00 80 1012.7
20260508003512 17 161 3.2 0.0 0.00 0.00 0.00 80 1012.7
20260508003009 18 157 3.2 0.0 0.00 0.00 0.00 79 1012.7
20260508002511 18 159 3.2 0.0 0.00 0.00 0.00 79 1012.7
20260508002008 18 169 3.2 0.0 0.00 0.00 0.00 79 1012.7
20260508001508 18 187 4.8 0.0 0.00 0.00 0.00 79 1012.7
20260508001007 18 209 4.8 0.0 0.00 0.00 0.00 79 1012.6
20260508000508 18 169 4.8 0.0 0.00 0.00 0.00 78 1012.6
20260508000006 18 219 4.8 0.0 0.00 0.00 0.00 78 1012.6
20260507235510 18 169 3.2 0.0 0.00 0.00 0.00 79 1012.6
20260507235005 18 186 3.2 0.0 0.00 0.00 0.00 79 1012.6
20260507234507 18 188 4.8 0.0 0.00 0.00 0.00 81 1012.6
20260507234006 18 122 4.8 0.0 0.00 0.00 0.00 81 1012.6
20260507233505 18 173 4.8 0.0 0.00 0.00 0.00 81 1012.6
20260507233011 18 164 4.8 0.0 0.00 0.00 0.00 81 1012.7
20260507232506 17 136 6.4 0.0 0.00 0.00 0.00 81 1012.7
20260507232004 17 174 6.4 0.0 0.00 0.00 0.00 81 1012.7
20260507231504 18 176 6.4 0.0 0.00 0.00 0.00 81 1012.7
20260507231004 18 150 6.4 0.0 0.00 0.00 0.00 81 1012.7
20260507230504 18 167 6.4 0.0 0.00 0.00 0.00 81 1012.7
20260507230005 18 155 6.4 0.0 0.00 0.00 0.00 80 1012.7
20260507225503 18 163 4.8 0.0 0.00 0.00 0.00 81 1012.7
20260507225004 18 155 6.4 0.0 0.00 0.00 0.00 81 1012.7
20260507224502 18 167 6.4 0.0 0.00 0.00 0.00 80 1013.0
20260507224004 18 169 4.8 0.0 0.00 0.00 0.00 79 1013.0
20260507223502 18 194 4.8 0.0 0.00 0.00 0.00 79 1013.0
20260507223001 18 166 4.8 0.0 0.00 0.00 0.00 78 1013.1
20260507222603 18 229 4.8 0.0 0.00 0.00 0.00 79 1013.1
20260507222101 18 360 6.4 0.0 0.00 0.00 0.00 80 1013.1
20260507221559 18 159 6.4 0.0 0.00 0.00 0.00 80 1013.1
20260507221058 18 172 4.8 0.0 0.00 0.00 0.00 80 1013.3
20260507220558 18 360 4.8 0.0 0.00 0.00 0.00 81 1013.3
20260507220058 17 196 6.4 0.0 0.00 0.00 0.00 81 1013.3
20260507215558 17 178 6.4 0.0 0.00 0.00 0.00 80 1013.4
20260507215058 18 187 4.8 0.0 0.00 0.00 0.00 81 1013.4
20260507214606 17 163 4.8 0.0 0.00 0.00 0.00 82 1013.4
20260507214057 17 140 4.8 0.0 0.00 0.00 0.00 81 1013.7
20260507213557 17 104 6.4 0.0 0.00 0.00 0.00 82 1013.7
20260507213058 17 205 6.4 0.0 0.00 0.00 0.00 82 1013.7
20260507212556 17 173 4.8 0.0 0.00 0.00 0.00 82 1013.8
20260507212100 17 178 6.4 0.0 0.00 0.00 0.00 82 1013.8
20260507211601 17 166 6.4 0.0 0.00 0.00 0.00 83 1013.8
20260507211056 17 145 6.4 0.0 0.00 0.00 0.00 82 1013.9
20260507210556 17 155 6.4 0.0 0.00 0.00 0.00 82 1013.9
20260507205554 18 213 4.8 0.0 0.00 0.00 0.00 82 1014.0
20260507205055 18 217 6.4 0.0 0.00 0.00 0.00 81 1014.0
20260507204555 18 216 6.4 0.0 0.00 0.00 0.00 83 1014.0
20260507204057 17 167 4.8 0.0 0.00 0.00 0.00 83 1014.2
20260507203554 17 166 6.4 0.0 0.00 0.00 0.00 83 1014.2
20260507203106 17 178 4.8 0.0 0.00 0.00 0.00 82 1014.2
20260507202552 17 172 6.4 0.0 0.00 0.00 0.00 83 1014.2
20260507202052 17 227 6.4 0.0 0.00 0.00 0.00 81 1014.2
20260507201559 17 225 4.8 0.0 0.00 0.00 0.00 81 1014.2
20260507201055 18 186 4.8 0.0 0.00 0.00 0.00 81 1014.2